Location: *
(51.4660°N, 0.3360°W)
Time: 19:52:09
(UTC+00:00)

Cosmos 1758 Rocket - Pass Details

Date: 19 September 2019
Orbit: 602 x 636 km, 82.5° (Epoch: 21 October)

Event Time Altitude Azimuth Distance (km) Brightness Sun altitude
Rises 21:03:02 0° 350° (N) 2,869 7.7 -25.9°
Reaches altitude 10° 21:05:15 10° 351° (N) 1,961 6.7 -26.2°
Enters shadow 21:08:30 50° 0° (N) 778 4.2 -26.6°
